DLH6CR EDDF-EDXW

Flight info

Callsign DLH6CR
Flight time 0h 49m
Altitude 39000
Route MARUN3W/25C MARUN Y150 TOLGI DCT ELSOB Y348 OMWEG DCT BADOS DCT OLDIP
Aircraft A319/M-SDE2E3FGIJ1LORWXYZ/HB1

Departure

Time 2026-05-04 18:30
Airport Frankfurt Main Airport (EDDF)

Arrival

Time 2026-05-04 19:20
Airport Westerland Sylt Airport (EDXW)
Time Latitude Longitude Altitude Speed Heading
2026-05-04 17:32 50.04725 8.58101 363 ft 0 kts 160°
2026-05-04 18:20 50.04742 8.58091 363 ft 4 kts 160°
2026-05-04 18:20 50.04763 8.58078 361 ft 3 kts 160°
2026-05-04 18:20 50.04783 8.58077 365 ft 4 kts 228°
2026-05-04 18:20 50.04792 8.58099 362 ft 4 kts 247°
2026-05-04 18:21 50.04793 8.58106 366 ft 0 kts 250°
2026-05-04 18:21 50.04793 8.58105 366 ft 0 kts 250°
2026-05-04 18:22 50.04791 8.58097 362 ft 4 kts 250°
2026-05-04 18:23 50.04773 8.58016 362 ft 11 kts 250°
2026-05-04 18:23 50.04713 8.57956 362 ft 12 kts 163°
2026-05-04 18:23 50.04634 8.58003 360 ft 12 kts 159°
2026-05-04 18:23 50.04589 8.58029 362 ft 0 kts 159°
2026-05-04 18:24 50.04586 8.58031 362 ft 1 kts 159°
2026-05-04 18:24 50.04572 8.58039 362 ft 1 kts 159°
2026-05-04 18:24 50.04551 8.58051 365 ft 8 kts 160°
2026-05-04 18:25 50.04504 8.58077 365 ft 6 kts 160°
2026-05-04 18:25 50.04490 8.58085 366 ft 3 kts 160°
2026-05-04 18:25 50.04477 8.58092 365 ft 0 kts 160°
2026-05-04 18:29 50.04469 8.58097 368 ft 4 kts 160°
2026-05-04 18:29 50.04429 8.58119 368 ft 7 kts 161°
2026-05-04 18:29 50.04374 8.58082 367 ft 13 kts 234°
2026-05-04 18:30 50.04044 8.56721 363 ft 139 kts 251°
2026-05-04 18:30 50.03700 8.55259 899 ft 145 kts 252°
2026-05-04 18:30 50.03345 8.53788 1591 ft 148 kts 251°
2026-05-04 18:31 50.02955 8.52183 2061 ft 169 kts 251°
2026-05-04 18:31 50.02496 8.50421 2599 ft 186 kts 243°
2026-05-04 18:31 50.01579 8.48847 3002 ft 211 kts 216°
2026-05-04 18:31 50.00145 8.47956 3404 ft 238 kts 190°
2026-05-04 18:32 49.98494 8.47610 4441 ft 236 kts 187°
2026-05-04 18:32 49.96889 8.47268 5693 ft 227 kts 188°
2026-05-04 18:32 49.95393 8.46687 6940 ft 218 kts 206°
2026-05-04 18:32 49.94228 8.45252 8007 ft 215 kts 231°
2026-05-04 18:33 49.93612 8.43136 8959 ft 220 kts 257°
2026-05-04 18:33 49.93705 8.40752 9900 ft 228 kts 284°
2026-05-04 18:33 49.94564 8.38576 10460 ft 255 kts 314°
2026-05-04 18:33 49.96235 8.37299 10876 ft 288 kts 349°
2026-05-04 18:34 49.98329 8.37201 11293 ft 314 kts
2026-05-04 18:34 50.00600 8.37396 11676 ft 339 kts
2026-05-04 18:34 50.03032 8.37709 11999 ft 363 kts
2026-05-04 18:34 50.05630 8.38065 12239 ft 386 kts
2026-05-04 18:35 50.08360 8.38415 12745 ft 398 kts
2026-05-04 18:35 50.11147 8.38739 13338 ft 408 kts
2026-05-04 18:35 50.14024 8.39038 13873 ft 418 kts
2026-05-04 18:35 50.16943 8.39321 14481 ft 423 kts
2026-05-04 18:36 50.19897 8.39600 15115 ft 427 kts
2026-05-04 18:36 50.22873 8.39885 15752 ft 431 kts
2026-05-04 18:36 50.25883 8.40178 16371 ft 435 kts
2026-05-04 18:36 50.28865 8.40625 16962 ft 440 kts
2026-05-04 18:37 50.31822 8.41952 17539 ft 445 kts 18°
2026-05-04 18:37 50.34759 8.43557 18120 ft 449 kts 18°
2026-05-04 18:37 50.37714 8.45179 18640 ft 452 kts 18°
2026-05-04 18:37 50.40689 8.46815 19117 ft 455 kts 18°
2026-05-04 18:38 50.43690 8.48464 19591 ft 458 kts 18°
2026-05-04 18:38 50.46702 8.50119 20053 ft 461 kts 18°
2026-05-04 18:38 50.49728 8.51846 20496 ft 465 kts 23°
2026-05-04 18:38 50.52495 8.54510 20930 ft 469 kts 38°
2026-05-04 18:39 50.55034 8.57755 21360 ft 472 kts 39°
2026-05-04 18:39 50.57578 8.61049 21785 ft 475 kts 39°
2026-05-04 18:39 50.60132 8.64377 22199 ft 478 kts 39°
2026-05-04 18:39 50.62696 8.67726 22601 ft 481 kts 39°
2026-05-04 18:40 50.65282 8.71097 22992 ft 484 kts 39°
2026-05-04 18:40 50.67886 8.74478 23381 ft 487 kts 38°
2026-05-04 18:40 50.70533 8.77837 23713 ft 489 kts 38°
2026-05-04 18:40 50.73217 8.81159 24028 ft 492 kts 37°
2026-05-04 18:41 50.75916 8.84456 24328 ft 494 kts 37°
2026-05-04 18:41 50.78643 8.87778 24579 ft 496 kts 37°
2026-05-04 18:41 50.81376 8.91121 24817 ft 497 kts 37°
2026-05-04 18:41 50.84110 8.94496 25062 ft 499 kts 37°
2026-05-04 18:42 50.86842 8.97902 25307 ft 502 kts 38°
2026-05-04 18:42 50.89589 9.01342 25578 ft 505 kts 38°
2026-05-04 18:42 50.92351 9.04797 25861 ft 507 kts 37°
2026-05-04 18:42 50.95119 9.08239 26133 ft 509 kts 37°
2026-05-04 18:43 50.97918 9.11708 26418 ft 512 kts 37°
2026-05-04 18:43 51.00730 9.15188 26760 ft 513 kts 37°
2026-05-04 18:43 51.03551 9.18690 27157 ft 512 kts 37°
2026-05-04 18:43 51.06343 9.22168 27563 ft 512 kts 37°
2026-05-04 18:44 51.09214 9.25514 27980 ft 511 kts 30°
2026-05-04 18:44 51.11273 9.27318 28245 ft 509 kts 23°
2026-05-04 18:44 51.15700 9.29719 29101 ft 497 kts
2026-05-04 18:44 51.19072 9.30886 29699 ft 495 kts
2026-05-04 18:45 51.22429 9.32051 30223 ft 493 kts
2026-05-04 18:45 51.25776 9.33217 30694 ft 492 kts
2026-05-04 18:45 51.29110 9.34380 31164 ft 490 kts
2026-05-04 18:45 51.32436 9.35542 31627 ft 489 kts
2026-05-04 18:46 51.35755 9.36701 32085 ft 487 kts
2026-05-04 18:46 51.39048 9.37852 32477 ft 487 kts
2026-05-04 18:46 51.42357 9.38989 32716 ft 485 kts
2026-05-04 18:46 51.45684 9.39366 32946 ft 476 kts 352°
2026-05-04 18:47 51.48950 9.38752 33002 ft 472 kts 347°
2026-05-04 18:47 51.55383 9.37294 32981 ft 471 kts 346°
2026-05-04 18:48 51.61859 9.35786 32980 ft 471 kts 346°
2026-05-04 18:48 51.68348 9.34285 33006 ft 471 kts 346°
2026-05-04 18:49 51.74848 9.32807 32974 ft 472 kts 347°
2026-05-04 18:49 51.81312 9.31338 32974 ft 472 kts 346°
2026-05-04 18:50 51.87821 9.29915 32960 ft 472 kts 347°
2026-05-04 18:50 51.94337 9.28578 32968 ft 472 kts 347°
2026-05-04 18:51 52.00855 9.27236 32951 ft 472 kts 347°
2026-05-04 18:51 52.07363 9.25870 32949 ft 472 kts 347°
2026-05-04 18:52 52.13870 9.24481 32951 ft 472 kts 347°
2026-05-04 18:52 52.20365 9.23096 32977 ft 471 kts 347°
2026-05-04 18:53 52.26863 9.21718 32962 ft 471 kts 347°
2026-05-04 18:53 52.33360 9.20327 32958 ft 471 kts 347°
2026-05-04 18:54 52.39847 9.18933 32955 ft 470 kts 347°
2026-05-04 18:54 52.46341 9.17529 32965 ft 470 kts 347°
2026-05-04 18:55 52.52792 9.16137 32950 ft 470 kts 347°
2026-05-04 18:55 52.62526 9.14060 32934 ft 470 kts 347°
2026-05-04 18:56 52.69008 9.12652 32946 ft 470 kts 346°
2026-05-04 18:56 52.75428 9.11247 32944 ft 470 kts 346°
2026-05-04 18:57 52.81890 9.09835 32977 ft 470 kts 346°
2026-05-04 18:57 52.88368 9.08412 32968 ft 470 kts 346°
2026-05-04 18:58 52.94849 9.06980 32984 ft 469 kts 346°
2026-05-04 18:58 53.01317 9.05552 32987 ft 469 kts 346°
2026-05-04 18:59 53.07781 9.04126 32984 ft 468 kts 346°
2026-05-04 18:59 53.14245 9.02701 32980 ft 468 kts 346°
2026-05-04 19:00 53.20703 9.01261 32975 ft 468 kts 346°
2026-05-04 19:00 53.27155 8.99809 32973 ft 468 kts 346°
2026-05-04 19:01 53.33607 8.98359 32970 ft 468 kts 346°
2026-05-04 19:01 53.40065 8.96919 32970 ft 468 kts 346°
2026-05-04 19:02 53.46514 8.95482 32965 ft 467 kts 346°
2026-05-04 19:02 53.49735 8.94761 32357 ft 467 kts 346°
2026-05-04 19:02 53.52951 8.94032 31690 ft 468 kts 346°
2026-05-04 19:03 53.56170 8.93295 30942 ft 466 kts 346°
2026-05-04 19:03 53.59369 8.92564 30206 ft 463 kts 346°
2026-05-04 19:03 53.62553 8.91838 29272 ft 462 kts 346°
2026-05-04 19:03 53.65748 8.91108 28361 ft 461 kts 347°
2026-05-04 19:04 53.68904 8.90390 27621 ft 456 kts 346°
2026-05-04 19:04 53.72045 8.89678 26615 ft 455 kts 346°
2026-05-04 19:04 53.75166 8.88967 25419 ft 460 kts 347°
2026-05-04 19:04 53.78326 8.88246 24416 ft 458 kts 347°
2026-05-04 19:05 53.81470 8.87526 23516 ft 454 kts 347°
2026-05-04 19:05 53.84578 8.86814 22605 ft 447 kts 347°
2026-05-04 19:05 53.87644 8.86111 21741 ft 442 kts 347°
2026-05-04 19:05 53.90671 8.85414 20913 ft 437 kts 348°
2026-05-04 19:06 53.93670 8.84722 20124 ft 432 kts 348°
2026-05-04 19:06 53.96636 8.84035 19341 ft 428 kts 348°
2026-05-04 19:06 53.99578 8.83355 18592 ft 425 kts 348°
2026-05-04 19:06 54.02493 8.82686 17822 ft 421 kts 348°
2026-05-04 19:07 54.05384 8.82019 17071 ft 417 kts 348°
2026-05-04 19:07 54.08244 8.81355 16381 ft 413 kts 348°
2026-05-04 19:07 54.11074 8.80694 15731 ft 409 kts 348°
2026-05-04 19:07 54.13877 8.80037 15129 ft 405 kts 348°
2026-05-04 19:08 54.16657 8.79384 14517 ft 401 kts 349°
2026-05-04 19:08 54.19409 8.78739 13911 ft 397 kts 348°
2026-05-04 19:08 54.22133 8.78101 13226 ft 393 kts 348°
2026-05-04 19:08 54.24829 8.77471 12513 ft 389 kts 349°
2026-05-04 19:09 54.27500 8.76850 11780 ft 385 kts 349°
2026-05-04 19:09 54.30141 8.76235 11042 ft 381 kts 349°
2026-05-04 19:09 54.32753 8.75624 10545 ft 373 kts 349°
2026-05-04 19:09 54.35270 8.75053 10302 ft 357 kts 349°
2026-05-04 19:10 54.36878 8.74735 10141 ft 347 kts 350°
2026-05-04 19:10 54.40006 8.74194 9812 ft 330 kts 351°
2026-05-04 19:10 54.42251 8.73826 9545 ft 319 kts 351°
2026-05-04 19:10 54.43698 8.73587 9384 ft 312 kts 351°
2026-05-04 19:11 54.45826 8.73225 9121 ft 303 kts 350°
2026-05-04 19:11 54.48552 8.72752 8776 ft 292 kts 350°
2026-05-04 19:11 54.50549 8.72401 8518 ft 286 kts 350°
2026-05-04 19:11 54.52520 8.72052 8261 ft 284 kts 350°
2026-05-04 19:12 54.54480 8.71702 7997 ft 283 kts 350°
2026-05-04 19:12 54.57743 8.71112 7578 ft 280 kts 350°
2026-05-04 19:12 54.59681 8.70761 7333 ft 279 kts 350°
2026-05-04 19:13 54.61565 8.70104 7086 ft 274 kts 337°
2026-05-04 19:13 54.63242 8.68638 6714 ft 268 kts 323°
2026-05-04 19:13 54.64746 8.66769 6272 ft 266 kts 320°
2026-05-04 19:13 54.66234 8.64897 5843 ft 264 kts 321°
2026-05-04 19:14 54.67729 8.63066 5430 ft 262 kts 322°
2026-05-04 19:14 54.69202 8.61263 5005 ft 257 kts 322°
2026-05-04 19:14 54.70632 8.59491 4589 ft 248 kts 322°
2026-05-04 19:14 54.71988 8.57782 4349 ft 234 kts 321°
2026-05-04 19:15 54.73269 8.56173 4180 ft 222 kts 323°
2026-05-04 19:15 54.74527 8.54709 3993 ft 213 kts 323°
2026-05-04 19:15 54.76084 8.52820 3667 ft 200 kts 321°
2026-05-04 19:15 54.76834 8.51876 3493 ft 195 kts 321°
2026-05-04 19:16 54.77901 8.50557 3321 ft 183 kts 322°
2026-05-04 19:16 54.78933 8.49336 3108 ft 177 kts 323°
2026-05-04 19:16 54.79922 8.48155 2883 ft 173 kts 322°
2026-05-04 19:16 54.80886 8.46944 2654 ft 170 kts 322°
2026-05-04 19:17 54.81826 8.45727 2400 ft 168 kts 323°
2026-05-04 19:17 54.82778 8.44571 2133 ft 165 kts 324°
2026-05-04 19:17 54.83700 8.43477 1864 ft 155 kts 324°
2026-05-04 19:17 54.84551 8.42396 1580 ft 148 kts 324°
2026-05-04 19:18 54.85366 8.41402 1339 ft 139 kts 324°
2026-05-04 19:18 54.86140 8.40461 1114 ft 132 kts 323°
2026-05-04 19:18 54.86857 8.39567 940 ft 124 kts 323°
2026-05-04 19:18 54.87567 8.38683 783 ft 125 kts 324°
2026-05-04 19:19 54.88270 8.37830 622 ft 122 kts 324°
2026-05-04 19:19 54.88959 8.36973 418 ft 122 kts 324°
2026-05-04 19:19 54.89647 8.36120 265 ft 122 kts 325°
2026-05-04 19:19 54.90342 8.35264 96 ft 122 kts 326°
2026-05-04 19:20 54.90973 8.34485 37 ft 86 kts 324°
2026-05-04 19:20 54.91245 8.34146 36 ft 23 kts 324°
2026-05-04 19:20 54.91309 8.33995 36 ft 16 kts 244°
2026-05-04 19:20 54.91246 8.33818 34 ft 19 kts 239°
2026-05-04 19:21 54.91177 8.33614 33 ft 21 kts 239°
2026-05-04 19:21 54.91100 8.33387 33 ft 22 kts 239°
2026-05-04 19:21 54.91053 8.33219 34 ft 9 kts 269°
2026-05-04 19:21 54.91107 8.33180 35 ft 10 kts 360°
2026-05-04 19:22 54.91178 8.33179 34 ft 12 kts 359°
2026-05-04 19:22 54.91260 8.33180 31 ft 8 kts
2026-05-04 19:22 54.91307 8.33219 29 ft 10 kts 30°
2026-05-04 19:22 54.91346 8.33221 29 ft 4 kts 320°
2026-05-04 19:23 54.91351 8.33169 29 ft 5 kts 270°
2026-05-04 19:23 54.91351 8.33135 29 ft 2 kts 270°
2026-05-04 19:23 54.91351 8.33119 29 ft 0 kts 270°